White Mountain, AK

10:17 AM AKDT on October 20, 2017 (GMT -0800)
White Mountain

Weather History for PAWM - December, 2013

Change the Weather History Date:

Wednesday, December 4, 2013

  Actual Average (PAOM) Record (PAOM)
Temperature  
Mean Temperature 28 °F -  
Max Temperature 33 °F 15 °F 35 °F (1972)
Min Temperature 24 °F 1 °F -32 °F (1916)
Degree Days  
Heating Degree Days 36    
Moisture  
Dew Point 27 °F    
Average Humidity 91    
Maximum Humidity 100    
Minimum Humidity 85    
Precipitation  
Precipitation 0.00 in - - ()
Sea Level Pressure  
Sea Level Pressure 30.26 in    
Wind  
Wind Speed 10 mph (ENE)    
Max Wind Speed 18 mph    
Max Gust Speed 26 mph    
Visibility 7 miles    
Events Snow    
Averages and records for this station are not official NWS values.
T = Trace of Precipitation, MM = Missing Value Source: NWS Daily Summary

Daily Weather History Graph

Daily Weather History Graph

Search for Another Location

Airport or City:

Trip Planner

Search our weather history database for the weather conditions in past years. The results will help you decide how hot, cold, wet, or windy it might be!

Date:

Astronomy

Dec. 04, 2013 Rise Set
Actual Time 11:29 AM AKST 3:58 PM AKST
Civil Twilight 10:12 AM AKST 5:15 PM AKST
Nautical Twilight 9:04 AM AKST 6:23 PM AKST
Astronomical Twilight 8:03 AM AKST 7:23 PM AKST
Moon 12:40 PM AKST (12/4) 6:54 PM AKST (12/4)
Length of Visible Light 7h 02m
Length of Day
4h 29m
Waxing Crescent, 5% of the Moon is Illuminated
Dec 4
Waxing Crescent
Dec 9
First Quarter
Dec 17
Full
Dec 25
Last Quarter
Jan 1
New

Hourly Weather History & Observations

Time (AKST) Temp. Windchill Dew Point Humidity Pressure Visibility Wind Dir Wind Speed Gust Speed Precip Events Conditions
12:58 AM 26.1 °F 18.4 °F 25.0 °F 96% 30.45 in 9.0 mi NNE 6.9 mph - N/A   Overcast
1:13 AM 26.6 °F 18.2 °F 24.8 °F 93% 30.41 in 9.0 mi NE 8.1 mph - N/A   Scattered Clouds
1:58 AM 25.0 °F 16.3 °F 24.1 °F 96% 30.44 in 10.0 mi North 8.1 mph - N/A   Clear
2:58 AM 24.1 °F 14.4 °F 21.9 °F 91% 30.42 in 9.0 mi North 9.2 mph - N/A   Clear
3:58 AM 25.0 °F 17.1 °F 24.1 °F 96% 30.41 in 10.0 mi NNE 6.9 mph - N/A   Clear
4:58 AM 25.0 °F 17.1 °F 24.1 °F 96% 30.39 in 10.0 mi ENE 6.9 mph - N/A   Clear
5:58 AM 26.1 °F 16.2 °F 25.0 °F 96% 30.37 in 10.0 mi ENE 10.4 mph - N/A   Clear
6:58 AM 27.0 °F 18.7 °F 26.1 °F 96% 30.36 in 10.0 mi NE 8.1 mph - N/A   Clear
7:58 AM 28.0 °F 20.0 °F 25.0 °F 88% 30.34 in 10.0 mi NE 8.1 mph - N/A   Mostly Cloudy
8:58 AM 28.0 °F 20.0 °F 25.0 °F 88% 30.33 in 10.0 mi ENE 8.1 mph - N/A   Overcast
9:58 AM 28.0 °F 20.8 °F 24.1 °F 85% 30.33 in 10.0 mi ENE 6.9 mph - N/A   Overcast
10:46 AM 28.4 °F 18.5 °F 24.8 °F 86% 30.28 in 9.0 mi East 11.5 mph - 0.00 in Snow Light Snow
10:58 AM 28.9 °F 19.2 °F 25.0 °F 85% 30.32 in 4.0 mi East 11.5 mph - 0.00 in Snow Light Snow
11:15 AM 28.4 °F 18.0 °F 24.8 °F 86% 30.28 in 2.5 mi East 12.7 mph - 0.00 in Snow Light Snow
11:28 AM 28.4 °F 17.5 °F 26.6 °F 93% 30.27 in 3.0 mi East 13.8 mph - 0.00 in Snow Light Snow
11:39 AM 28.4 °F 17.0 °F 24.8 °F 86% 30.27 in 2.5 mi East 15.0 mph - 0.00 in Snow Light Snow
11:58 AM 28.9 °F 19.2 °F 26.1 °F 89% 30.30 in 1.2 mi East 11.5 mph 19.6 mph 0.00 in Snow Light Snow
12:06 PM 28.4 °F 18.5 °F 26.6 °F 93% 30.27 in 1.0 mi East 11.5 mph - 0.00 in Snow Light Snow
12:21 PM 28.4 °F 18.5 °F 26.6 °F 93% 30.26 in 1.2 mi East 11.5 mph - 0.00 in Snow Light Snow
12:38 PM 28.4 °F 18.0 °F 26.6 °F 93% 30.26 in 1.5 mi East 12.7 mph - 0.00 in Snow Light Snow
12:58 PM 28.9 °F 18.2 °F 28.0 °F 96% 30.28 in 1.8 mi East 13.8 mph - 0.00 in Snow Light Snow
1:02 PM 28.4 °F 17.5 °F 28.4 °F 100% 30.25 in 2.0 mi East 13.8 mph - 0.00 in Snow Light Snow
1:38 PM 28.4 °F 16.6 °F 26.6 °F 93% 30.23 in 3.0 mi East 16.1 mph 21.9 mph 0.00 in Snow Light Snow
1:58 PM 28.9 °F 18.6 °F 28.0 °F 96% 30.26 in 4.0 mi East 12.7 mph - 0.00 in Snow Light Snow
2:14 PM 30.2 °F 19.3 °F 28.4 °F 93% 30.21 in 4.0 mi East 15.0 mph - 0.00 in Snow Light Snow
2:49 PM 30.2 °F 18.1 °F 28.4 °F 93% 30.20 in 3.0 mi East 18.4 mph 25.3 mph 0.00 in Snow Light Snow
2:58 PM 30.0 °F 17.9 °F 28.0 °F 92% 30.24 in 3.0 mi East 18.4 mph 26.5 mph 0.00 in Snow Light Snow
3:18 PM 30.2 °F 18.1 °F 28.4 °F 93% 30.20 in 7.0 mi East 18.4 mph 24.2 mph 0.00 in Snow Light Snow
3:58 PM 30.0 °F 20.0 °F 28.0 °F 92% 30.22 in 7.0 mi East 12.7 mph - 0.00 in Snow Light Snow
4:58 PM 30.9 °F 20.7 °F 28.0 °F 89% 30.19 in 9.0 mi ESE 13.8 mph - 0.00 in   Overcast
5:58 PM 32.0 °F 24.8 °F 28.9 °F 88% 30.18 in 10.0 mi ESE 8.1 mph - 0.00 in   Overcast
6:58 PM 32.0 °F 24.2 °F 28.9 °F 88% 30.18 in 9.0 mi ESE 9.2 mph - 0.00 in   Overcast
7:15 PM 32.0 °F 25.6 °F 28.4 °F 87% 30.13 in 10.0 mi ESE 6.9 mph - 0.00 in   Overcast
7:58 PM 32.0 °F 25.6 °F 28.9 °F 88% 30.16 in 10.0 mi ESE 6.9 mph - 0.00 in   Overcast
8:58 PM 33.1 °F 30.0 °F 30.0 °F 89% 30.15 in 10.0 mi SSE 3.5 mph - N/A   Overcast
9:31 PM 32.0 °F 27.5 °F 28.4 °F 87% 30.10 in 10.0 mi North 4.6 mph - N/A   Overcast
9:36 PM 32.0 °F 27.5 °F 28.4 °F 87% 30.09 in 10.0 mi NNW 4.6 mph - N/A   Overcast
9:58 PM 30.9 °F 25.2 °F 28.9 °F 92% 30.12 in 10.0 mi North 5.8 mph - 0.00 in   Overcast
10:58 PM 32.0 °F 28.7 °F 30.0 °F 92% 30.10 in 10.0 mi North 3.5 mph - 0.00 in   Overcast
11:58 PM 32.0 °F 27.5 °F 30.0 °F 92% 30.11 in 10.0 mi NW 4.6 mph - N/A   Overcast